Simultaneous Nadir Overpasses (SNOs) Predictions

Prediction of SNOs between NOAA-20 and AQUA Satellite Orbit:

Table of predicted SNOs for the next 14.0 days since TLE Epoch: 7/6/2018
Index Date (NOAA-20) Time (NOAA-20) Lat,Lon (NOAA-20) SZA (NOAA-20 ) Date (AQUA) Time (AQUA) Lat,Lon (AQUA) SZA (AQUA ) Distance(km) Time Diff (sec)
1 07/07/2018 22:17:36 -59.49,-118.29 86.71 07/07/2018 22:18:49 -59.22,-116.80 86.99 90.02 73
2 07/07/2018 23:02:55 76.58, 75.16 74.74 07/07/2018 23:02:57 76.59, 75.21 74.73 1.33 2
3 07/07/2018 23:53:15 -77.69,-112.82 106.72 07/07/2018 23:52:01 -77.71,-112.88 106.66 2.25 74
4 07/10/2018 14:29:18 -76.09, 21.84 104.31 07/10/2018 14:30:11 -76.09, 21.81 104.35 0.80 53
5 07/10/2018 15:19:42 77.00,-167.44 74.54 07/10/2018 15:19:17 76.99,-167.47 74.57 0.84 25
6 07/13/2018 06:46:12 -76.20, 137.98 104.07 07/13/2018 06:46:37 -76.21, 138.07 104.12 2.73 25
7 07/13/2018 07:36:36 77.10, -51.26 74.79 07/13/2018 07:35:43 77.11, -51.16 74.81 2.69 53
8 07/15/2018 22:12:59 74.48, 81.19 78.43 07/15/2018 22:14:13 74.42, 81.36 78.37 8.38 74
9 07/15/2018 23:02:57 -76.71,-104.38 104.30 07/15/2018 23:02:55 -76.71,-104.38 104.30 0.16 2
10 07/18/2018 14:29:18 76.19,-157.84 76.81 07/18/2018 14:30:05 76.19,-157.88 76.79 1.20 47




NCC Satellite Simultaneous Nadir Overpasses (SNOs) Prediction Service
